User: anonymous   Login
Location: G�ndlingen
(48.0142°N, 7.6396°E)
Time: 07:28:59
(UTC+00:00)
Language:

Cosmos 1892 - Orbit

View from above orbital plane
View from above orbital plane
View from above satellite
View from above satellite

Ground track
Ground track

The orbit data is extracted from the following two-line orbital elements,

1 18421U 87088A   20273.87480128 +.00000998 +00000-0 +48405-4 0  9990
2 18421 082.5024 170.2024 0016581 065.6311 294.6651 15.17238155800388
Epoch (UTC): 29 September 2020 20:59:42
Eccentricity: 0.0016581
inclination: 82.5024°
perigee height: 503 km
apogee height: 525 km
right ascension of ascending node: 170.2024°
argument of perigee: 65.6311°
revolutions per day: 15.17238155
mean anomaly at epoch: 294.6651°
orbit number at epoch: 80038

The dashed part of the orbit path shows where the satellite is in the earth's shadow,  

DLR